[[{"header":{"parameterUnit":"m.s-1","parameterCategory":1,"la1":30.2991,"la2":30.254,"lo1":-89.0895,"lo2":-89.0444,"dy":0.0017,"dx":0.0017,"nx":28,"ny":28,"refTime":"2023-07-25T03:00:00:Z","depth":0,"parameterNumber":2,"parameterNumberName":"U-component_of_WINDS"},"data":[0,0,0,0,0,0,0,0,0,0,0,0,0,0,0,0,0,0,0,0,0,0,0,0,0,0,0,0,0,0,0,0,0,0,0,0,0,0,0,0,0,0,0,0,0,0,0,0,0,0,0,0,0,0,0,0,0,0,0.2892,0.2893,0,0.3063,0.3065,0.3067,0.3152,0.3152,0.3152,0.3152,0.3332,0.3336,0.3341,0,0,0,0,0,0,0,0,0,0,0,0,0,0.2638,0.2642,0.2891,0.2894,0.2896,0.3063,0.3066,0.3068,0.3152,0.3152,0.3152,0.3152,0.333,0.3336,0.3341,0,0,0,0,0,0,0,0,0,0,0,0,0,0.2773,0.2644,0.2891,0.2958,0.2966,0.3063,0.3066,0.3069,0.3152,0.3152,0.3152,0.3152,0.3328,0.3335,0.3342,0.3387,0,0,0.3364,0.3367,0,0,0,0,0,0,0,0,0.2765,0.2782,0.2946,0.2953,0.2962,0.3086,0.3042,0.3175,0.3152,0.3081,0.3152,0.3152,0.325,0.3264,0.3296,0.3395,0.3403,0.3365,0.3369,0.3372,0.3374,0,0,0,0,0,0,0,0.2756,0.2775,0.296,0.2948,0.2958,0.298,0.2999,0.3068,0.3164,0.3088,0.3094,0.3113,0.3255,0.3289,0.3301,0.3406,0.3365,0.3371,0.3375,0.3378,0.3549,0.3549,0,0,0,0,0,0,0.2735,0.2767,0.2954,0.2965,0.2862,0.2984,0.3006,0.3047,0.3163,0.3181,0.3113,0.3117,0.3277,0.3293,0.3308,0.3367,0.3372,0.3379,0.3383,0.3549,0.3549,0.3549,0,0,0,0,0,0,0.2729,0.2751,0.2947,0.2868,0.2894,0.2989,0.3034,0.305,0.3084,0.3183,0.32,0.313,0.3277,0.3298,0.3366,0.3375,0.3382,0.3389,0.3548,0.3549,0.3549,0.3486,0,0,0,0,0,0,0.2722,0.2748,0.2766,0.2867,0.2898,0.3002,0.3034,0.3053,0.3096,0.3102,0.3204,0.322,0.3279,0.3355,0.3373,0.3385,0.3394,0.3548,0.3549,0.3549,0.3488,0.3484,0.3481,0,0,0,0,0,0.2712,0.2742,0.2766,0.2789,0.2922,0.3002,0.302,0.3086,0.3096,0.3115,0.3178,0.3217,0.337,0.3361,0.3383,0.3396,0.3548,0.3548,0.3549,0.349,0.3485,0.3481,0,0,0,0,0,0,0.2641,0.2757,0.2785,0.2849,0.2915,0.3016,0.3042,0.3079,0.3145,0.3148,0.3228,0.325,0.3311,0.3361,0.3348,0.3445,0.3463,0.3468,0.341,0.3407,0.3404,0.3391,0.34,0,0,0,0,0,0.2632,0.2687,0.2786,0.2832,0.2864,0.2947,0.2984,0.3029,0.3102,0.313,0.3198,0.3268,0.3332,0.3372,0.3436,0.3495,0.3518,0.3515,0.3512,0.3508,0.3512,0.3546,0.3546,0.3551,0.3551,0.3551,0,0,0.2616,0.2686,0.2716,0.282,0.2876,0.2932,0.297,0.3027,0.3069,0.314,0.3208,0.326,0.3343,0.3406,0.3438,0.3449,0.3515,0.3509,0.3506,0.3511,0.3547,0.3546,0.3545,0.3551,0.3551,0.3551,0,0,0.2614,0.2672,0.2717,0.2772,0.2857,0.2912,0.2922,0.3018,0.3055,0.3124,0.3178,0.3229,0.3337,0.3394,0.3437,0.3454,0.3492,0.3472,0.3455,0.3488,0.3487,0.3487,0.3493,0.3494,0.3475,0.3475,0.3475,0,0.2583,0.2668,0.2736,0.279,0.2834,0.2898,0.2944,0.2995,0.3096,0.3125,0.3136,0.3273,0.3333,0.341,0.3414,0.3447,0.3461,0.3462,0.3481,0.3482,0.3483,0.349,0.3492,0.3472,0.3473,0.3473,0.3473,0,0.2625,0.2683,0.2709,0.2804,0.2851,0.2901,0.2976,0.3016,0.3056,0.3109,0.3179,0.3253,0.3333,0.3354,0.3395,0.3437,0.3442,0.3466,0.3486,0.3479,0.3486,0.3489,0.3468,0.3469,0.347,0.3471,0,0,0.2585,0.2715,0.2723,0.2767,0.2864,0.291,0.2962,0.3039,0.3071,0.3139,0.3184,0.3274,0.3296,0.3345,0.3392,0.342,0.3428,0.3442,0.3445,0.3436,0.3479,0.346,0.3461,0.3454,0.3454,0.3455,0.3472,0,0.2596,0.2692,0.2754,0.2826,0.288,0.294,0.2986,0.305,0.3101,0.3155,0.3212,0.3273,0.3299,0.3328,0.3359,0.3421,0.3438,0.342,0.3498,0.35,0.3475,0.3466,0.3446,0.3458,0.3475,0.3476,0.3476,0,0.2623,0.2687,0.2763,0.2853,0.2878,0.2918,0.2993,0.3043,0.3117,0.3152,0.3205,0.3253,0.331,0.3324,0.3405,0.3391,0.3427,0.3462,0.3464,0.3474,0.3488,0.3476,0.3464,0.3466,0.3481,0.3481,0.3481,0,0.2586,0.2691,0.275,0.2785,0.2892,0.2918,0.2964,0.3038,0.3079,0.3145,0.3173,0.3244,0.3283,0.3338,0.3403,0.3407,0.3477,0.3497,0.3508,0.3506,0.3521,0.3519,0.3515,0.3543,0.3543,0.3543,0.3543,0,0.2593,0.2637,0.2734,0.2771,0.2822,0.2892,0.2941,0.2992,0.3057,0.3105,0.3162,0.3205,0.3289,0.3343,0.3394,0.3453,0.3471,0.3501,0.3514,0.3496,0.3492,0.352,0.3521,0.3543,0.3543,0.3543,0.3543,0,0.256,0.2627,0.2695,0.2789,0.2814,0.2848,0.2929,0.2966,0.3019,0.3079,0.3097,0.318,0.3246,0.3316,0.3407,0.3442,0.3498,0.3517,0.3472,0.348,0.3487,0.3485,0.3501,0.3507,0.353,0.353,0.353,0,0.256,0.2595,0.2693,0.2728,0.2771,0.2828,0.287,0.294,0.2982,0.3068,0.3095,0.3165,0.3225,0.3328,0.3397,0.3466,0.3487,0.3487,0.3498,0.3478,0.3487,0.3484,0.3488,0.3484,0.3484,0.3483,0.3483,0,0.2553,0.2584,0.2642,0.2711,0.276,0.2818,0.2879,0.2905,0.2987,0.3031,0.3098,0.3144,0.3235,0.3304,0.3381,0.3429,0.3469,0.3479,0.3485,0.3467,0.344,0.3454,0.3463,0.3478,0.3479,0.3479,0.3479,0.348,0.2537,0.2571,0.2644,0.2707,0.2759,0.2814,0.2853,0.291,0.2967,0.3046,0.3084,0.3151,0.3224,0.3331,0.3378,0.3431,0.3444,0.3453,0.3455,0.3457,0.3452,0.343,0.3446,0.3446,0.3446,0.3446,0.3447,0,0.2533,0.2582,0.2639,0.2721,0.277,0.2803,0.2871,0.291,0.2968,0.3031,0.3088,0.3165,0.3231,0.3305,0.3376,0.3404,0.3425,0.3421,0.342,0.343,0.3437,0.3424,0.3403,0.3403,0.3403,0.3403,0.3403,0.3403,0.2537,0.2595,0.2634,0.2719,0.2769,0.2834,0.287,0.2921,0.2972,0.3054,0.3109,0.3156,0.3224,0.3299,0.3362,0.3382,0.3405,0.3395,0.3421,0.3426,0.3429,0.3433,0.3421,0.34,0.34,0.3409,0.3409,0.3409]},{"header":{"parameterUnit":"m.s-1","parameterCategory":1,"la1":30.2991,"la2":30.254,"lo1":-89.0895,"lo2":-89.0444,"dy":0.0017,"dx":0.0017,"nx":28,"ny":28,"refTime":"2023-07-25T03:00:00:Z","depth":0,"parameterNumber":3,"parameterNumberName":"V-component_of_WINDS"},"data":[0,0,0,0,0,0,0,0,0,0,0,0,0,0,0,0,0,0,0,0,0,0,0,0,0,0,0,0,0,0,0,0,0,0,0,0,0,0,0,0,0,0,0,0,0,0,0,0,0,0,0,0,0,0,0,0,0,0,2.7784,2.7784,0,2.7743,2.7743,2.7742,2.7774,2.7776,2.7777,2.7779,2.7729,2.7726,2.7724,0,0,0,0,0,0,0,0,0,0,0,0,0,2.7884,2.7882,2.7784,2.7784,2.7783,2.7743,2.7743,2.7742,2.7774,2.7776,2.7778,2.7779,2.773,2.7727,2.7724,0,0,0,0,0,0,0,0,0,0,0,0,0,2.7841,2.7881,2.7785,2.7795,2.7795,2.7744,2.7743,2.7742,2.7774,2.7776,2.7778,2.778,2.7731,2.7727,2.7723,2.7657,0,0,2.7711,2.7709,0,0,0,0,0,0,0,0,2.7843,2.7837,2.7794,2.7794,2.7794,2.7766,2.776,2.7713,2.7773,2.7782,2.7779,2.7781,2.7739,2.7735,2.7722,2.7655,2.7653,2.7711,2.7708,2.7707,2.7706,0,0,0,0,0,0,0,2.7846,2.7839,2.7768,2.7793,2.7793,2.7799,2.7795,2.7751,2.7749,2.7781,2.7783,2.7778,2.774,2.7726,2.7721,2.7652,2.7711,2.7707,2.7705,2.7704,2.7526,2.7524,0,0,0,0,0,0,2.7849,2.7842,2.7769,2.7767,2.7825,2.7796,2.7791,2.7773,2.775,2.7748,2.7777,2.778,2.7732,2.7726,2.772,2.7639,2.7707,2.7703,2.7701,2.7529,2.7526,2.7523,0,0,0,0,0,0,2.7851,2.7843,2.7771,2.7805,2.7796,2.7792,2.7771,2.7771,2.7757,2.7746,2.7745,2.7763,2.7733,2.7725,2.7673,2.7638,2.7701,2.7698,2.7531,2.7528,2.7524,2.7478,0,0,0,0,0,0,2.7854,2.7843,2.7819,2.7804,2.7794,2.7726,2.7769,2.7769,2.7751,2.7755,2.7734,2.7732,2.7734,2.7678,2.7669,2.7634,2.7695,2.7534,2.753,2.7526,2.7483,2.7474,2.7466,0,0,0,0,0,2.7857,2.7807,2.7818,2.7809,2.7765,2.7724,2.7719,2.7724,2.7749,2.7724,2.7716,2.7733,2.7644,2.7673,2.7662,2.7625,2.7536,2.7531,2.7526,2.7487,2.7476,2.7466,0,0,0,0,0,0,2.7816,2.7805,2.7817,2.7761,2.7744,2.773,2.7699,2.7712,2.7686,2.769,2.7696,2.7691,2.7635,2.7625,2.7658,2.7559,2.7594,2.7586,2.7568,2.7557,2.7549,2.7551,2.7691,0,0,0,0,0,2.7801,2.7771,2.7762,2.7713,2.7704,2.7703,2.7685,2.7692,2.7673,2.7665,2.7654,2.7633,2.76,2.7578,2.7548,2.7483,2.7477,2.7452,2.7444,2.7437,2.7429,2.7392,2.738,2.7506,2.7506,2.7506,0,0,2.7767,2.7758,2.7738,2.7704,2.7692,2.7658,2.7696,2.766,2.7634,2.7658,2.7608,2.7599,2.7576,2.7517,2.749,2.7507,2.7393,2.743,2.7424,2.742,2.7385,2.7373,2.7362,2.7502,2.7503,2.7503,0,0,2.769,2.7681,2.7639,2.7626,2.7607,2.7607,2.7596,2.7581,2.7577,2.7527,2.7544,2.7513,2.7457,2.744,2.7423,2.734,2.7353,2.733,2.7284,2.7248,2.7238,2.7229,2.7197,2.7185,2.7323,2.7323,2.7323,0,2.7651,2.7604,2.7614,2.7576,2.756,2.7584,2.7539,2.7525,2.7496,2.7483,2.7503,2.7433,2.7419,2.7355,2.7335,2.7322,2.7308,2.7331,2.7239,2.723,2.7222,2.7191,2.7179,2.732,2.732,2.732,2.7321,0,2.7555,2.7522,2.7489,2.7463,2.7443,2.7402,2.7404,2.7382,2.739,2.7387,2.7335,2.732,2.7286,2.7272,2.7278,2.7208,2.7219,2.7239,2.7273,2.7207,2.7178,2.7167,2.7316,2.7317,2.7318,2.7318,0,0,2.7448,2.743,2.7417,2.7405,2.7387,2.736,2.7319,2.7288,2.7268,2.7248,2.7212,2.7164,2.7183,2.7164,2.7169,2.7138,2.707,2.7162,2.7161,2.7143,2.6989,2.6972,2.6958,2.708,2.7078,2.7076,2.699,0,2.7368,2.73,2.7308,2.7241,2.7209,2.7232,2.7196,2.7179,2.7175,2.7145,2.714,2.7106,2.7134,2.7123,2.7093,2.7085,2.7039,2.7091,2.7043,2.7041,2.7046,2.6944,2.6926,2.6845,2.6979,2.6977,2.6976,0,2.7265,2.7243,2.7174,2.716,2.7146,2.7114,2.7086,2.7059,2.704,2.7039,2.7019,2.7029,2.6986,2.7023,2.6961,2.6997,2.6978,2.6971,2.6968,2.6961,2.7003,2.6932,2.682,2.6807,2.6958,2.696,2.6961,0,2.7192,2.7145,2.7097,2.7086,2.7069,2.7045,2.7036,2.702,2.7,2.6975,2.6962,2.6932,2.6914,2.6889,2.689,2.6918,2.6827,2.6865,2.6822,2.6822,2.68,2.6801,2.6681,2.6792,2.6792,2.6792,2.6792,0,2.71,2.7056,2.7063,2.7033,2.6984,2.6994,2.6944,2.6938,2.6922,2.689,2.6907,2.6876,2.688,2.6848,2.6848,2.6796,2.6788,2.6784,2.6784,2.6781,2.6781,2.6767,2.6771,2.6789,2.679,2.679,2.6791,0,2.7008,2.7012,2.6961,2.6949,2.6945,2.6909,2.6898,2.6869,2.6867,2.6825,2.6816,2.6812,2.6775,2.6774,2.6731,2.6731,2.6667,2.6674,2.6674,2.6674,2.6631,2.6634,2.6495,2.6476,2.6602,2.6601,2.66,0,2.6948,2.6915,2.6901,2.6882,2.6872,2.684,2.6822,2.683,2.6809,2.6784,2.6757,2.6722,2.6695,2.6634,2.6625,2.6592,2.6597,2.6551,2.6592,2.659,2.6593,2.6594,2.659,2.6542,2.654,2.6539,2.6538,0,2.6841,2.6845,2.6818,2.6791,2.6769,2.6748,2.6728,2.6711,2.6717,2.6692,2.6655,2.6634,2.6591,2.6555,2.6523,2.6511,2.6524,2.6526,2.6514,2.6509,2.6509,2.6506,2.6649,2.6528,2.6529,2.653,2.6531,2.6531,2.6762,2.6733,2.6718,2.6687,2.6674,2.6656,2.6628,2.6623,2.6594,2.6561,2.6567,2.6525,2.6506,2.6465,2.645,2.6416,2.6432,2.6415,2.641,2.6405,2.6399,2.6517,2.641,2.6411,2.6411,2.6411,2.6411,0,2.6653,2.6645,2.6617,2.6591,2.6566,2.6584,2.6564,2.6541,2.6505,2.6487,2.646,2.6417,2.6382,2.6372,2.6338,2.6312,2.6317,2.6303,2.6303,2.63,2.6389,2.6401,2.6299,2.6299,2.6299,2.6299,2.6299,2.6299,2.6594,2.6545,2.6547,2.6492,2.6484,2.6445,2.6431,2.6413,2.6399,2.6351,2.6324,2.6318,2.6302,2.6267,2.6235,2.6233,2.6218,2.62,2.62,2.6283,2.6294,2.6304,2.6316,2.6198,2.6198,2.6114,2.6113,2.6113]}]]